| time (UTC) | temp F | wind direction | speed knots | gust knots | rain 1hr in | rain 24hr in | rain mn in | humidity % | barometer mb |
| 20260906161555 | 78 | 117 | 2.6 | 10.4 | 0.00 | 0.00 | 0.00 | 70 | 1017.3 |
| 20260906160054 | 77 | 59 | 3.5 | 8.7 | 0.00 | 0.00 | 0.00 | 71 | 1017.2 |
| 20260906154547 | 77 | 67 | 2.6 | 6.1 | 0.00 | 0.00 | 0.00 | 75 | 1017.0 |
| 20260906153043 | 76 | 78 | 4.3 | 8.7 | 0.00 | 0.00 | 0.00 | 74 | 1017.0 |
| 20260906151540 | 75 | 71 | 3.5 | 9.6 | 0.00 | 0.00 | 0.00 | 75 | 1016.8 |
| 20260906150036 | 74 | 309 | 4.3 | 8.7 | 0.00 | 0.00 | 0.00 | 77 | 1016.8 |
| 20260906144530 | 74 | 107 | 3.5 | 9.6 | 0.00 | 0.00 | 0.00 | 79 | 1016.6 |
| 20260906143025 | 72 | 238 | 3.5 | 8.7 | 0.00 | 0.00 | 0.00 | 82 | 1016.6 |
| 20260906141522 | 72 | 33 | 2.6 | 7.8 | 0.00 | 0.00 | 0.00 | 83 | 1016.6 |
| 20260906140039 | 71 | 90 | 2.6 | 8.7 | 0.00 | 0.00 | 0.00 | 83 | 1016.8 |
| 20260906134520 | 71 | 118 | 4.3 | 7.8 | 0.00 | 0.00 | 0.00 | 85 | 1016.9 |
| 20260906133020 | 72 | 98 | 2.6 | 10.4 | 0.00 | 0.00 | 0.00 | 86 | 1017.0 |
| 20260906131515 | 71 | 52 | 2.6 | 7.8 | 0.00 | 0.00 | 0.00 | 89 | 1016.7 |
| 20260906130014 | 71 | 49 | 2.6 | 8.7 | 0.00 | 0.00 | 0.00 | 91 | 1016.4 |
| 20260906124512 | 71 | 76 | 4.3 | 7.0 | 0.00 | 0.00 | 0.00 | 93 | 1016.4 |
| 20260906123013 | 70 | 117 | 1.7 | 4.3 | 0.00 | 0.00 | 0.00 | 95 | 1016.2 |
| 20260906121504 | 69 | 337 | 0.9 | 5.2 | 0.00 | 0.00 | 0.00 | 96 | 1016.0 |
| 20260906120059 | 69 | 60 | 1.7 | 4.3 | 0.00 | 0.00 | 0.00 | 96 | 1015.6 |
| 20260906114533 | 70 | 21 | 2.6 | 7.0 | 0.00 | 0.00 | 0.00 | 96 | 1015.3 |
| 20260906113037 | 70 | 36 | 0.9 | 4.3 | 0.00 | 0.00 | 0.00 | 96 | 1015.1 |
| 20260906111525 | 71 | 17 | 0.9 | 5.2 | 0.00 | 0.00 | 0.00 | 97 | 1014.8 |
| 20260906110026 | 70 | 117 | 1.7 | 7.0 | 0.00 | 0.00 | 0.00 | 97 | 1014.8 |
| 20260906104524 | 70 | 86 | 0.9 | 7.0 | 0.00 | 0.00 | 0.00 | 97 | 1014.7 |
| 20260906103024 | 70 | 29 | 1.7 | 4.3 | 0.00 | 0.00 | 0.00 | 97 | 1014.7 |
| 20260906101523 | 70 | 355 | 1.7 | 4.3 | 0.00 | 0.00 | 0.00 | 97 | 1014.3 |
| 20260906100031 | 70 | 26 | 1.7 | 4.3 | 0.00 | 0.00 | 0.00 | 97 | 1014.3 |
| 20260906094521 | 70 | 59 | 1.7 | 3.5 | 0.00 | 0.00 | 0.00 | 96 | 1014.1 |
| 20260906093041 | 70 | 40 | 1.7 | 5.2 | 0.00 | 0.00 | 0.00 | 96 | 1014.1 |
| 20260906091520 | 70 | 28 | 0.9 | 4.3 | 0.00 | 0.00 | 0.00 | 96 | 1014.2 |
| 20260906090021 | 71 | 50 | 1.7 | 4.3 | 0.00 | 0.00 | 0.00 | 96 | 1014.4 |
| 20260906084520 | 71 | 93 | 0.9 | 5.2 | 0.00 | 0.00 | 0.00 | 95 | 1014.2 |
| 20260906083031 | 71 | 350 | 0.9 | 4.3 | 0.00 | 0.00 | 0.00 | 95 | 1014.4 |
| 20260906081519 | 70 | 61 | 1.7 | 5.2 | 0.00 | 0.00 | 0.00 | 95 | 1014.4 |
| 20260906080017 | 70 | 338 | 1.7 | 5.2 | 0.00 | 0.00 | 0.00 | 95 | 1014.4 |
| 20260906074532 | 70 | 51 | 0.9 | 6.1 | 0.00 | 0.00 | 0.00 | 96 | 1014.3 |
| 20260906073023 | 70 | 26 | 2.6 | 4.3 | 0.00 | 0.00 | 0.00 | 96 | 1014.3 |
| 20260906071515 | 70 | 38 | 4.3 | 8.7 | 0.00 | 0.00 | 0.00 | 96 | 1014.3 |
| 20260906070015 | 69 | 13 | 2.6 | 7.0 | 0.00 | 0.00 | 0.00 | 96 | 1014.5 |
| 20260906064515 | 69 | 29 | 0.9 | 5.2 | 0.00 | 0.00 | 0.00 | 96 | 1014.5 |
| 20260906063015 | 69 | 60 | 1.7 | 4.3 | 0.00 | 0.00 | 0.00 | 96 | 1014.6 |
| 20260906061513 | 69 | 32 | 2.6 | 5.2 | 0.00 | 0.00 | 0.00 | 96 | 1014.6 |
| 20260906060012 | 69 | 38 | 0.9 | 7.0 | 0.00 | 0.00 | 0.00 | 95 | 1014.7 |
| 20260906054511 | 69 | 68 | 2.6 | 7.0 | 0.00 | 0.00 | 0.00 | 95 | 1014.7 |
| 20260906053013 | 69 | 23 | 2.6 | 7.0 | 0.00 | 0.00 | 0.00 | 95 | 1014.4 |
| 20260906051506 | 70 | 24 | 0.9 | 5.2 | 0.00 | 0.00 | 0.00 | 95 | 1014.3 |
| 20260906050004 | 70 | 78 | 0.9 | 7.0 | 0.00 | 0.00 | 0.00 | 95 | 1014.1 |
| 20260906044620 | 71 | 77 | 1.7 | 7.0 | 0.00 | 0.00 | 0.00 | 94 | 1014.0 |
| 20260906043101 | 71 | 78 | 1.7 | 7.8 | 0.00 | 0.00 | 0.00 | 94 | 1013.7 |
| 20260906041558 | 72 | 62 | 2.6 | 7.0 | 0.00 | 0.00 | 0.00 | 93 | 1013.6 |
| 20260906040054 | 72 | 34 | 2.6 | 8.7 | 0.00 | 0.00 | 0.00 | 93 | 1013.5 |
| 20260906034552 | 73 | 115 | 0.9 | 7.8 | 0.00 | 0.00 | 0.00 | 93 | 1013.3 |
| 20260906033051 | 73 | 82 | 1.7 | 7.8 | 0.00 | 0.00 | 0.00 | 92 | 1013.3 |
| 20260906031550 | 74 | 69 | 1.7 | 7.0 | 0.00 | 0.00 | 0.00 | 92 | 1013.3 |
| 20260906030052 | 74 | 85 | 1.7 | 5.2 | 0.00 | 0.00 | 0.00 | 90 | 1013.4 |
| 20260906024607 | 75 | 24 | 1.7 | 7.8 | 0.00 | 0.00 | 0.00 | 89 | 1013.1 |
| 20260906023054 | 76 | 113 | 3.5 | 9.6 | 0.00 | 0.00 | 0.00 | 89 | 1013.0 |
| 20260906021546 | 77 | 79 | 2.6 | 7.0 | 0.00 | 0.00 | 0.00 | 89 | 1013.0 |
| 20260906020044 | 77 | 69 | 2.6 | 10.4 | 0.00 | 0.00 | 0.00 | 88 | 1012.7 |
| 20260906014550 | 78 | 34 | 2.6 | 8.7 | 0.00 | 0.00 | 0.00 | 87 | 1012.5 |
| 20260906013042 | 79 | 34 | 3.5 | 9.6 | 0.00 | 0.00 | 0.00 | 86 | 1012.3 |
| 20260906011554 | 80 | 63 | 2.6 | 8.7 | 0.00 | 0.00 | 0.00 | 85 | 1012.1 |
| 20260906010100 | 81 | 46 | 4.3 | 12.2 | 0.00 | 0.00 | 0.00 | 84 | 1011.9 |
| 20260906004546 | 82 | 355 | 2.6 | 7.8 | 0.00 | 0.00 | 0.00 | 84 | 1011.7 |
| 20260906003044 | 83 | 5 | 3.5 | 7.0 | 0.00 | 0.00 | 0.00 | 82 | 1011.4 |
| 20260906001558 | 84 | 355 | 5.2 | 9.6 | 0.00 | 0.00 | 0.00 | 80 | 1011.4 |
| 20260906000039 | 84 | 350 | 3.5 | 7.8 | 0.00 | 0.00 | 0.00 | 79 | 1011.4 |
| 20260905234539 | 85 | 5 | 2.6 | 3.5 | 0.00 | 0.00 | 0.00 | 79 | 1011.3 |
| 20260905233039 | 87 | 28 | 1.7 | 4.3 | 0.00 | 0.00 | 0.00 | 76 | 1011.3 |
| 20260905231543 | 87 | 19 | 2.6 | 7.8 | 0.00 | 0.00 | 0.00 | 75 | 1011.1 |
| 20260905230039 | 88 | 5 | 2.6 | 7.0 | 0.00 | 0.00 | 0.00 | 74 | 1011.0 |
| 20260905224544 | 89 | 5 | 1.7 | 7.8 | 0.00 | 0.00 | 0.00 | 74 | 1011.0 |
| 20260905223041 | 89 | 5 | 2.6 | 8.7 | 0.00 | 0.00 | 0.00 | 73 | 1011.0 |
| 20260905221541 | 90 | 40 | 2.6 | 7.0 | 0.00 | 0.00 | 0.00 | 72 | 1011.0 |
| 20260905220036 | 90 | 336 | 3.5 | 7.0 | 0.00 | 0.00 | 0.00 | 73 | 1011.0 |
| 20260905214535 | 90 | 22 | 1.7 | 5.2 | 0.00 | 0.00 | 0.00 | 72 | 1010.9 |
| 20260905213040 | 90 | 51 | 0.9 | 7.8 | 0.00 | 0.00 | 0.00 | 72 | 1010.9 |
| 20260905211542 | 90 | 346 | 1.7 | 4.3 | 0.00 | 0.00 | 0.00 | 72 | 1010.9 |
| 20260905210035 | 90 | 9 | 1.7 | 7.0 | 0.00 | 0.00 | 0.00 | 70 | 1011.1 |
| 20260905204532 | 90 | 15 | 2.6 | 7.0 | 0.00 | 0.00 | 0.00 | 71 | 1011.2 |
| 20260905203045 | 90 | 48 | 3.5 | 7.8 | 0.00 | 0.00 | 0.00 | 71 | 1011.1 |
| 20260905201549 | 91 | 38 | 2.6 | 10.4 | 0.00 | 0.00 | 0.00 | 71 | 1011.1 |
| 20260905200030 | 91 | 9 | 2.6 | 9.6 | 0.00 | 0.00 | 0.00 | 67 | 1011.2 |
| 20260905194528 | 91 | 25 | 1.7 | 7.0 | 0.00 | 0.00 | 0.00 | 70 | 1011.3 |
| 20260905193032 | 92 | 328 | 3.5 | 8.7 | 0.00 | 0.00 | 0.00 | 66 | 1011.2 |
| 20260905191527 | 91 | 318 | 3.5 | 9.6 | 0.00 | 0.00 | 0.00 | 68 | 1011.5 |
| 20260905190021 | 92 | 329 | 3.5 | 8.7 | 0.00 | 0.00 | 0.00 | 67 | 1011.6 |
| 20260905184518 | 91 | 325 | 3.5 | 5.2 | 0.00 | 0.00 | 0.00 | 66 | 1011.8 |
| 20260905183019 | 91 | 335 | 1.7 | 5.2 | 0.00 | 0.00 | 0.00 | 68 | 1011.9 |
| 20260905181517 | 91 | 50 | 2.6 | 9.6 | 0.00 | 0.00 | 0.00 | 69 | 1012.0 |
| 20260905180016 | 91 | 16 | 3.5 | 8.7 | 0.00 | 0.00 | 0.00 | 68 | 1012.1 |
| 20260905174515 | 91 | 303 | 2.6 | 8.7 | 0.00 | 0.00 | 0.00 | 70 | 1012.0 |
| 20260905173011 | 90 | 338 | 2.6 | 8.7 | 0.00 | 0.00 | 0.00 | 70 | 1012.1 |
| 20260905171508 | 90 | 279 | 3.5 | 9.6 | 0.00 | 0.00 | 0.00 | 69 | 1012.2 |
| 20260905170009 | 90 | 315 | 1.7 | 8.7 | 0.00 | 0.00 | 0.00 | 71 | 1012.4 |
| 20260905164504 | 89 | 355 | 1.7 | 9.6 | 0.00 | 0.00 | 0.00 | 72 | 1012.5 |
| 20260905163003 | 89 | 325 | 3.5 | 9.6 | 0.00 | 0.00 | 0.00 | 71 | 1012.5 |